| time (UTC) | temp C | wind direction | speed KPH | gust KPH | rain 1hr cm | rain 24hr cm | rain mn cm | humidity % | barometer mb |
| 20260902183902 | 34 | 222 | 3.2 | 14.5 | 0.00 | 0.00 | 0.00 | 43 | 1016.6 |
| 20260902183403 | 35 | 231 | 3.2 | 11.3 | 0.00 | 0.00 | 0.00 | 41 | 1016.7 |
| 20260902181903 | 34 | 224 | 1.6 | 14.5 | 0.00 | 0.00 | 0.00 | 42 | 1017.0 |
| 20260902181403 | 33 | 234 | 3.2 | 19.3 | 0.00 | 0.00 | 0.00 | 44 | 1017.0 |
| 20260902180903 | 33 | 228 | 6.4 | 19.3 | 0.00 | 0.00 | 0.00 | 43 | 1017.1 |
| 20260902180402 | 34 | 347 | 1.6 | 8.0 | 0.00 | 0.00 | 0.00 | 43 | 1017.1 |
| 20260902173903 | 33 | 236 | 3.2 | 8.0 | 0.00 | 0.00 | 0.00 | 44 | 1017.1 |
| 20260902173403 | 32 | 26 | 3.2 | 8.0 | 0.00 | 0.00 | 0.00 | 45 | 1017.1 |
| 20260902172903 | 32 | 235 | 3.2 | 4.8 | 0.00 | 0.00 | 0.00 | 45 | 1017.1 |
| 20260902171902 | 33 | 233 | 1.6 | 4.8 | 0.00 | 0.00 | 0.00 | 45 | 1017.2 |
| 20260902171403 | 33 | 303 | 1.6 | 12.9 | 0.00 | 0.00 | 0.00 | 45 | 1017.2 |
| 20260902170902 | 32 | 15 | 1.6 | 12.9 | 0.00 | 0.00 | 0.00 | 46 | 1017.2 |
| 20260902164402 | 32 | 71 | 0.0 | 4.8 | 0.00 | 0.00 | 0.00 | 47 | 1017.1 |
| 20260902162403 | 31 | 203 | 1.6 | 4.8 | 0.00 | 0.00 | 0.00 | 51 | 1017.2 |
| 20260902161907 | 31 | 187 | 1.6 | 4.8 | 0.00 | 0.00 | 0.00 | 51 | 1017.3 |
| 20260902160903 | 30 | 150 | 1.6 | 4.8 | 0.00 | 0.00 | 0.00 | 51 | 1017.2 |
| 20260902160403 | 31 | 151 | 1.6 | 4.8 | 0.00 | 0.00 | 0.00 | 52 | 1017.2 |
| 20260902155403 | 30 | 193 | 0.0 | 4.8 | 0.00 | 0.00 | 0.00 | 53 | 1017.2 |
| 20260902154903 | 30 | 56 | 1.6 | 4.8 | 0.00 | 0.00 | 0.00 | 53 | 1017.2 |
| 20260902154403 | 30 | 72 | 1.6 | 4.8 | 0.00 | 0.00 | 0.00 | 54 | 1017.2 |
| 20260902153902 | 30 | 107 | 0.0 | 4.8 | 0.00 | 0.00 | 0.00 | 55 | 1017.2 |
| 20260902153403 | 29 | 81 | 1.6 | 4.8 | 0.00 | 0.00 | 0.00 | 55 | 1017.2 |
| 20260902152403 | 28 | 174 | 1.6 | 4.8 | 0.00 | 0.00 | 0.00 | 57 | 1017.1 |
| 20260902151904 | 28 | 98 | 1.6 | 4.8 | 0.00 | 0.00 | 0.00 | 57 | 1017.0 |
| 20260902150903 | 28 | 119 | 1.6 | 4.8 | 0.00 | 0.00 | 0.00 | 59 | 1017.0 |
| 20260902150402 | 28 | 72 | 1.6 | 4.8 | 0.00 | 0.00 | 0.00 | 60 | 1017.0 |
| 20260902145419 | 28 | 102 | 1.6 | 4.8 | 0.00 | 0.00 | 0.00 | 61 | 1016.9 |
| 20260902144903 | 27 | 124 | 3.2 | 4.8 | 0.00 | 0.00 | 0.00 | 62 | 1017.0 |
| 20260902143903 | 27 | 108 | 0.0 | 4.8 | 0.00 | 0.00 | 0.00 | 65 | 1017.0 |
| 20260902143403 | 26 | 105 | 1.6 | 3.2 | 0.00 | 0.00 | 0.00 | 67 | 1017.0 |
| 20260902141403 | 25 | 115 | 0.0 | 1.6 | 0.00 | 0.00 | 0.00 | 72 | 1016.9 |
| 20260902140903 | 25 | 78 | 0.0 | 0.0 | 0.00 | 0.00 | 0.00 | 74 | 1016.9 |
| 20260902133902 | 23 | 78 | 0.0 | 3.2 | 0.00 | 0.00 | 0.00 | 77 | 1016.6 |
| 20260902133402 | 23 | 78 | 1.6 | 3.2 | 0.00 | 0.00 | 0.00 | 78 | 1016.6 |
| 20260902132903 | 23 | 82 | 0.0 | 3.2 | 0.00 | 0.00 | 0.00 | 77 | 1016.4 |
| 20260902132402 | 23 | 101 | 0.0 | 1.6 | 0.00 | 0.00 | 0.00 | 77 | 1016.4 |
| 20260902131903 | 23 | 101 | 0.0 | 1.6 | 0.00 | 0.00 | 0.00 | 77 | 1016.4 |
| 20260902131402 | 23 | 101 | 0.0 | 1.6 | 0.00 | 0.00 | 0.00 | 77 | 1016.3 |
| 20260902130902 | 23 | 101 | 0.0 | 0.0 | 0.00 | 0.00 | 0.00 | 77 | 1016.3 |
| 20260902130403 | 23 | 101 | 0.0 | 0.0 | 0.00 | 0.00 | 0.00 | 77 | 1016.3 |
| 20260902125903 | 23 | 101 | 0.0 | 0.0 | 0.00 | 0.00 | 0.00 | 78 | 1016.2 |
| 20260902125403 | 23 | 101 | 0.0 | 1.6 | 0.00 | 0.00 | 0.00 | 78 | 1016.2 |
| 20260902124903 | 23 | 101 | 0.0 | 1.6 | 0.00 | 0.00 | 0.00 | 78 | 1016.2 |
| 20260902124403 | 23 | 101 | 0.0 | 1.6 | 0.00 | 0.00 | 0.00 | 78 | 1016.1 |
| 20260902123903 | 23 | 101 | 0.0 | 1.6 | 0.00 | 0.00 | 0.00 | 77 | 1016.1 |
| 20260902123403 | 23 | 101 | 0.0 | 0.0 | 0.00 | 0.00 | 0.00 | 77 | 1016.0 |
| 20260902122903 | 23 | 101 | 0.0 | 0.0 | 0.00 | 0.00 | 0.00 | 77 | 1016.0 |
| 20260902122403 | 23 | 101 | 0.0 | 0.0 | 0.00 | 0.00 | 0.00 | 77 | 1016.0 |
| 20260902121403 | 23 | 101 | 0.0 | 0.0 | 0.00 | 0.00 | 0.00 | 76 | 1016.0 |
| 20260902120903 | 23 | 101 | 0.0 | 0.0 | 0.00 | 0.00 | 0.00 | 76 | 1016.0 |
| 20260902115903 | 23 | 101 | 0.0 | 1.6 | 0.00 | 0.00 | 0.00 | 76 | 1015.9 |
| 20260902115403 | 23 | 125 | 0.0 | 1.6 | 0.00 | 0.00 | 0.00 | 76 | 1015.8 |
| 20260902114903 | 23 | 125 | 0.0 | 0.0 | 0.00 | 0.00 | 0.00 | 75 | 1015.8 |
| 20260902113903 | 23 | 125 | 0.0 | 0.0 | 0.00 | 0.00 | 0.00 | 75 | 1015.8 |
| 20260902113403 | 23 | 125 | 0.0 | 1.6 | 0.00 | 0.00 | 0.00 | 75 | 1015.8 |
| 20260902112903 | 23 | 125 | 0.0 | 1.6 | 0.00 | 0.00 | 0.00 | 75 | 1015.8 |
| 20260902112403 | 24 | 130 | 0.0 | 1.6 | 0.00 | 0.00 | 0.00 | 74 | 1015.8 |
| 20260902111403 | 24 | 163 | 0.0 | 4.8 | 0.00 | 0.00 | 0.00 | 75 | 1015.8 |
| 20260902110903 | 24 | 172 | 0.0 | 4.8 | 0.00 | 0.00 | 0.00 | 76 | 1015.7 |
| 20260902110403 | 24 | 192 | 1.6 | 3.2 | 0.00 | 0.00 | 0.00 | 76 | 1015.8 |
| 20260902105903 | 24 | 112 | 0.0 | 1.6 | 0.00 | 0.00 | 0.00 | 76 | 1015.7 |
| 20260902105403 | 24 | 112 | 0.0 | 1.6 | 0.00 | 0.00 | 0.00 | 75 | 1015.7 |
| 20260902104903 | 24 | 112 | 0.0 | 1.6 | 0.00 | 0.00 | 0.00 | 74 | 1015.7 |
| 20260902104402 | 24 | 112 | 0.0 | 1.6 | 0.00 | 0.00 | 0.00 | 74 | 1015.7 |
| 20260902103903 | 24 | 182 | 0.0 | 0.0 | 0.00 | 0.00 | 0.00 | 74 | 1015.8 |
| 20260902103402 | 24 | 182 | 0.0 | 0.0 | 0.00 | 0.00 | 0.00 | 74 | 1015.9 |
| 20260902102403 | 24 | 182 | 0.0 | 4.8 | 0.00 | 0.00 | 0.00 | 75 | 1016.0 |
| 20260902101904 | 24 | 63 | 0.0 | 1.6 | 0.00 | 0.00 | 0.00 | 74 | 1015.8 |
| 20260902101402 | 24 | 63 | 0.0 | 1.6 | 0.00 | 0.00 | 0.00 | 74 | 1015.8 |
| 20260902100902 | 24 | 63 | 0.0 | 1.6 | 0.00 | 0.00 | 0.00 | 73 | 1015.7 |
| 20260902100403 | 25 | 63 | 0.0 | 1.6 | 0.00 | 0.00 | 0.00 | 73 | 1015.8 |
| 20260902095902 | 24 | 63 | 0.0 | 1.6 | 0.00 | 0.00 | 0.00 | 73 | 1015.8 |
| 20260902095402 | 24 | 63 | 0.0 | 1.6 | 0.00 | 0.00 | 0.00 | 73 | 1015.7 |
| 20260902094903 | 24 | 63 | 0.0 | 1.6 | 0.00 | 0.00 | 0.00 | 73 | 1015.7 |
| 20260902093903 | 25 | 63 | 0.0 | 1.6 | 0.00 | 0.00 | 0.00 | 73 | 1015.7 |
| 20260902093404 | 25 | 63 | 0.0 | 3.2 | 0.00 | 0.00 | 0.00 | 73 | 1015.8 |
| 20260902092903 | 25 | 63 | 1.6 | 3.2 | 0.00 | 0.00 | 0.00 | 73 | 1015.7 |
| 20260902092403 | 25 | 67 | 0.0 | 3.2 | 0.00 | 0.00 | 0.00 | 73 | 1015.7 |
| 20260902091904 | 24 | 62 | 0.0 | 0.0 | 0.00 | 0.00 | 0.00 | 74 | 1015.9 |
| 20260902091403 | 24 | 74 | 0.0 | 1.6 | 0.00 | 0.00 | 0.00 | 73 | 1015.8 |
| 20260902090902 | 25 | 61 | 0.0 | 1.6 | 0.00 | 0.00 | 0.00 | 73 | 1015.7 |
| 20260902085903 | 25 | 61 | 0.0 | 3.2 | 0.00 | 0.00 | 0.00 | 72 | 1015.7 |
| 20260902085402 | 25 | 61 | 0.0 | 3.2 | 0.00 | 0.00 | 0.00 | 72 | 1015.7 |
| 20260902084903 | 25 | 51 | 0.0 | 3.2 | 0.00 | 0.00 | 0.00 | 71 | 1015.7 |
| 20260902084403 | 25 | 5 | 0.0 | 3.2 | 0.00 | 0.00 | 0.00 | 70 | 1015.7 |
| 20260902083903 | 25 | 294 | 0.0 | 3.2 | 0.00 | 0.00 | 0.00 | 69 | 1015.7 |
| 20260902083403 | 25 | 256 | 1.6 | 3.2 | 0.00 | 0.00 | 0.00 | 69 | 1015.8 |
| 20260902082902 | 25 | 268 | 1.6 | 3.2 | 0.00 | 0.00 | 0.00 | 69 | 1015.7 |
| 20260902082402 | 25 | 268 | 0.0 | 0.0 | 0.00 | 0.00 | 0.00 | 68 | 1015.8 |
| 20260902081903 | 25 | 268 | 0.0 | 0.0 | 0.00 | 0.00 | 0.00 | 68 | 1015.7 |
| 20260902081403 | 25 | 268 | 0.0 | 4.8 | 0.00 | 0.00 | 0.00 | 67 | 1015.8 |
| 20260902080403 | 25 | 243 | 3.2 | 4.8 | 0.00 | 0.00 | 0.00 | 69 | 1015.7 |
| 20260902075903 | 25 | 99 | 0.0 | 0.0 | 0.00 | 0.00 | 0.00 | 69 | 1015.5 |
| 20260902075403 | 25 | 99 | 0.0 | 0.0 | 0.00 | 0.00 | 0.00 | 69 | 1015.4 |
| 20260902074903 | 25 | 72 | 0.0 | 0.0 | 0.00 | 0.00 | 0.00 | 69 | 1015.4 |
| 20260902074403 | 25 | 78 | 0.0 | 0.0 | 0.00 | 0.00 | 0.00 | 68 | 1015.3 |
| 20260902073902 | 25 | 82 | 0.0 | 3.2 | 0.00 | 0.00 | 0.00 | 68 | 1015.4 |
| 20260902073403 | 25 | 58 | 0.0 | 3.2 | 0.00 | 0.00 | 0.00 | 68 | 1015.5 |
| 20260902072903 | 25 | 70 | 0.0 | 3.2 | 0.00 | 0.00 | 0.00 | 68 | 1015.5 |
| 20260902071903 | 26 | 51 | 1.6 | 3.2 | 0.00 | 0.00 | 0.00 | 67 | 1015.5 |
| 20260902071402 | 26 | 66 | 0.0 | 3.2 | 0.00 | 0.00 | 0.00 | 66 | 1015.5 |
| 20260902070403 | 26 | 94 | 1.6 | 3.2 | 0.00 | 0.00 | 0.00 | 65 | 1015.5 |
| 20260902065903 | 26 | 63 | 0.0 | 3.2 | 0.00 | 0.00 | 0.00 | 65 | 1015.4 |
| 20260902065403 | 26 | 63 | 0.0 | 3.2 | 0.00 | 0.00 | 0.00 | 64 | 1015.4 |
| 20260902064902 | 26 | 66 | 1.6 | 3.2 | 0.00 | 0.00 | 0.00 | 65 | 1015.3 |
| 20260902064403 | 26 | 115 | 0.0 | 3.2 | 0.00 | 0.00 | 0.00 | 65 | 1015.3 |
| 20260902063903 | 26 | 68 | 0.0 | 3.2 | 0.00 | 0.00 | 0.00 | 64 | 1015.3 |
| 20260902063403 | 26 | 49 | 0.0 | 3.2 | 0.00 | 0.00 | 0.00 | 64 | 1015.2 |
| 20260902062403 | 26 | 74 | 1.6 | 3.2 | 0.00 | 0.00 | 0.00 | 64 | 1015.3 |
| 20260902061903 | 26 | 151 | 0.0 | 4.8 | 0.00 | 0.00 | 0.00 | 64 | 1015.3 |
| 20260902061403 | 26 | 33 | 0.0 | 4.8 | 0.00 | 0.00 | 0.00 | 63 | 1015.3 |
| 20260902060403 | 26 | 38 | 1.6 | 4.8 | 0.00 | 0.00 | 0.00 | 64 | 1015.2 |
| 20260902055903 | 26 | 58 | 1.6 | 4.8 | 0.00 | 0.00 | 0.00 | 63 | 1015.2 |
| 20260902055403 | 27 | 37 | 0.0 | 3.2 | 0.00 | 0.00 | 0.00 | 63 | 1015.2 |
| 20260902054903 | 27 | 37 | 0.0 | 3.2 | 0.00 | 0.00 | 0.00 | 62 | 1015.3 |
| 20260902054403 | 27 | 41 | 1.6 | 3.2 | 0.00 | 0.00 | 0.00 | 62 | 1015.3 |
| 20260902053903 | 27 | 46 | 0.0 | 1.6 | 0.00 | 0.00 | 0.00 | 62 | 1015.3 |
| 20260902053402 | 27 | 46 | 0.0 | 1.6 | 0.00 | 0.00 | 0.00 | 62 | 1015.3 |
| 20260902052903 | 27 | 46 | 0.0 | 3.2 | 0.00 | 0.00 | 0.00 | 62 | 1015.3 |
| 20260902052403 | 27 | 46 | 0.0 | 3.2 | 0.00 | 0.00 | 0.00 | 61 | 1015.4 |
| 20260902051903 | 27 | 46 | 0.0 | 3.2 | 0.00 | 0.00 | 0.00 | 61 | 1015.4 |
| 20260902051403 | 27 | 41 | 0.0 | 3.2 | 0.00 | 0.00 | 0.00 | 60 | 1015.4 |
| 20260902050903 | 27 | 50 | 0.0 | 3.2 | 0.00 | 0.00 | 0.00 | 60 | 1015.4 |
| 20260902050403 | 27 | 57 | 0.0 | 3.2 | 0.00 | 0.00 | 0.00 | 59 | 1015.5 |
| 20260902045903 | 27 | 62 | 1.6 | 3.2 | 0.00 | 0.00 | 0.00 | 59 | 1015.5 |
| 20260902045403 | 27 | 45 | 0.0 | 3.2 | 0.00 | 0.00 | 0.00 | 59 | 1015.5 |
| 20260902044903 | 27 | 79 | 0.0 | 3.2 | 0.00 | 0.00 | 0.00 | 59 | 1015.5 |
| 20260902044403 | 27 | 79 | 0.0 | 3.2 | 0.00 | 0.00 | 0.00 | 59 | 1015.4 |
| 20260902042903 | 28 | 98 | 0.0 | 0.0 | 0.00 | 0.00 | 0.00 | 59 | 1015.5 |
| 20260902042403 | 28 | 86 | 0.0 | 0.0 | 0.00 | 0.00 | 0.00 | 59 | 1015.4 |
| 20260902041903 | 28 | 94 | 0.0 | 0.0 | 0.00 | 0.00 | 0.00 | 58 | 1015.4 |
| 20260902041403 | 28 | 72 | 0.0 | 0.0 | 0.00 | 0.00 | 0.00 | 56 | 1015.3 |
| 20260902040903 | 28 | 61 | 0.0 | 0.0 | 0.00 | 0.00 | 0.00 | 57 | 1015.3 |
| 20260902040403 | 28 | 67 | 0.0 | 0.0 | 0.00 | 0.00 | 0.00 | 58 | 1015.2 |
| 20260902035403 | 28 | 69 | 0.0 | 0.0 | 0.00 | 0.00 | 0.00 | 58 | 1015.0 |
| 20260902034903 | 28 | 69 | 0.0 | 0.0 | 0.00 | 0.00 | 0.00 | 57 | 1015.0 |
| 20260902034403 | 28 | 90 | 0.0 | 0.0 | 0.00 | 0.00 | 0.00 | 56 | 1014.9 |
| 20260902033903 | 29 | 63 | 0.0 | 0.0 | 0.00 | 0.00 | 0.00 | 54 | 1014.8 |
| 20260902032402 | 30 | 4 | 0.0 | 1.6 | 0.00 | 0.00 | 0.00 | 50 | 1014.6 |
| 20260902031403 | 30 | 9 | 1.6 | 3.2 | 0.00 | 0.00 | 0.00 | 50 | 1014.4 |
| 20260902030403 | 30 | 0 | 1.6 | 4.8 | 0.00 | 0.00 | 0.00 | 49 | 1014.2 |
| 20260902025903 | 30 | 329 | 0.0 | 3.2 | 0.00 | 0.00 | 0.00 | 50 | 1014.0 |
| 20260902025402 | 30 | 297 | 0.0 | 3.2 | 0.00 | 0.00 | 0.00 | 49 | 1013.9 |
| 20260902024903 | 30 | 355 | 0.0 | 3.2 | 0.00 | 0.00 | 0.00 | 49 | 1013.8 |
| 20260902024403 | 31 | 342 | 0.0 | 3.2 | 0.00 | 0.00 | 0.00 | 48 | 1013.7 |
| 20260902023903 | 31 | 336 | 0.0 | 3.2 | 0.00 | 0.00 | 0.00 | 47 | 1013.7 |
| 20260902023403 | 31 | 310 | 1.6 | 4.8 | 0.00 | 0.00 | 0.00 | 46 | 1013.6 |
| 20260902021903 | 31 | 328 | 0.0 | 3.2 | 0.00 | 0.00 | 0.00 | 45 | 1013.4 |
| 20260902021403 | 31 | 355 | 0.0 | 4.8 | 0.00 | 0.00 | 0.00 | 44 | 1013.4 |
| 20260902020903 | 31 | 320 | 0.0 | 4.8 | 0.00 | 0.00 | 0.00 | 43 | 1013.3 |
| 20260902020403 | 31 | 338 | 1.6 | 4.8 | 0.00 | 0.00 | 0.00 | 43 | 1013.3 |
| 20260902015902 | 31 | 347 | 0.0 | 4.8 | 0.00 | 0.00 | 0.00 | 43 | 1013.2 |
| 20260902015403 | 31 | 355 | 1.6 | 4.8 | 0.00 | 0.00 | 0.00 | 43 | 1013.2 |
| 20260902014902 | 32 | 349 | 1.6 | 3.2 | 0.00 | 0.00 | 0.00 | 43 | 1013.1 |
| 20260902013403 | 32 | 355 | 0.0 | 4.8 | 0.00 | 0.00 | 0.00 | 42 | 1013.1 |
| 20260902011402 | 32 | 236 | 1.6 | 4.8 | 0.00 | 2.26 | 0.00 | 43 | 1013.2 |
| 20260902010903 | 32 | 185 | 3.2 | 4.8 | 0.00 | 2.26 | 0.00 | 42 | 1013.2 |
| 20260902010403 | 33 | 350 | 3.2 | 4.8 | 0.00 | 2.26 | 0.00 | 41 | 1013.3 |
| 20260902005403 | 33 | 290 | 1.6 | 4.8 | 0.00 | 2.26 | 0.00 | 39 | 1013.1 |
| 20260902004902 | 33 | 226 | 1.6 | 4.8 | 0.00 | 2.26 | 0.00 | 38 | 1013.1 |
| 20260902004403 | 33 | 18 | 3.2 | 9.7 | 0.00 | 2.26 | 0.00 | 38 | 1013.1 |
| 20260902003903 | 33 | 353 | 1.6 | 9.7 | 0.00 | 2.26 | 0.00 | 37 | 1013.1 |
| 20260902002903 | 33 | 217 | 3.2 | 8.0 | 0.00 | 2.26 | 0.00 | 36 | 1013.3 |
| 20260902001902 | 33 | 305 | 1.6 | 4.8 | 0.00 | 2.26 | 0.00 | 36 | 1013.3 |
| 20260902001403 | 33 | 221 | 3.2 | 8.0 | 0.00 | 2.26 | 0.00 | 36 | 1013.3 |
| 20260902000903 | 34 | 45 | 1.6 | 14.5 | 0.00 | 2.26 | 0.00 | 36 | 1013.4 |
| 20260902000403 | 34 | 188 | 1.6 | 14.5 | 0.00 | 2.26 | 0.00 | 35 | 1013.4 |
| 20260901235903 | 34 | 242 | 3.2 | 14.5 | 0.00 | 2.26 | 0.00 | 36 | 1013.4 |
| 20260901235403 | 34 | 223 | 4.8 | 12.9 | 0.00 | 2.26 | 0.00 | 36 | 1013.5 |
| 20260901234903 | 34 | 232 | 4.8 | 12.9 | 0.00 | 2.26 | 0.00 | 36 | 1013.5 |
| 20260901234403 | 34 | 99 | 1.6 | 12.9 | 0.00 | 2.26 | 0.00 | 36 | 1013.5 |
| 20260901233903 | 35 | 209 | 3.2 | 12.9 | 0.00 | 2.26 | 0.00 | 37 | 1013.7 |
| 20260901233403 | 35 | 211 | 3.2 | 9.7 | 0.00 | 2.26 | 0.00 | 37 | 1013.6 |
| 20260901232903 | 35 | 233 | 4.8 | 9.7 | 0.00 | 2.26 | 0.00 | 35 | 1013.6 |
| 20260901231904 | 35 | 22 | 1.6 | 8.0 | 0.00 | 2.26 | 0.00 | 36 | 1013.8 |
| 20260901231403 | 35 | 235 | 1.6 | 9.7 | 0.00 | 2.26 | 0.00 | 36 | 1013.8 |
| 20260901230903 | 35 | 20 | 3.2 | 11.3 | 0.00 | 2.26 | 0.00 | 37 | 1013.8 |
| 20260901230403 | 35 | 225 | 4.8 | 11.3 | 0.00 | 2.26 | 0.00 | 35 | 1013.9 |
| 20260901225903 | 35 | 41 | 3.2 | 8.0 | 0.00 | 2.26 | 0.00 | 37 | 1013.9 |
| 20260901225403 | 35 | 19 | 3.2 | 8.0 | 0.00 | 2.26 | 0.00 | 36 | 1013.9 |
| 20260901224903 | 35 | 239 | 4.8 | 8.0 | 0.00 | 2.26 | 0.00 | 35 | 1013.9 |
| 20260901224403 | 35 | 278 | 3.2 | 8.0 | 0.00 | 2.26 | 0.00 | 35 | 1013.9 |
| 20260901223903 | 35 | 290 | 1.6 | 14.5 | 0.00 | 2.26 | 0.00 | 36 | 1014.2 |
| 20260901223403 | 35 | 254 | 3.2 | 14.5 | 0.00 | 2.26 | 0.00 | 35 | 1014.0 |
| 20260901222403 | 35 | 252 | 1.6 | 9.7 | 0.00 | 2.26 | 0.00 | 36 | 1014.2 |
| 20260901221903 | 35 | 284 | 3.2 | 9.7 | 0.00 | 2.26 | 0.00 | 36 | 1014.3 |
| 20260901220903 | 35 | 199 | 1.6 | 11.3 | 0.00 | 2.26 | 0.00 | 36 | 1014.3 |
| 20260901220403 | 35 | 209 | 3.2 | 11.3 | 0.00 | 2.26 | 0.00 | 37 | 1014.3 |
| 20260901215903 | 35 | 131 | 1.6 | 4.8 | 0.00 | 2.26 | 0.00 | 36 | 1014.4 |
| 20260901214903 | 35 | 42 | 1.6 | 8.0 | 0.00 | 2.26 | 0.00 | 36 | 1014.5 |
| 20260901214403 | 35 | 277 | 1.6 | 9.7 | 0.00 | 2.26 | 0.00 | 36 | 1014.6 |
| 20260901213403 | 35 | 257 | 1.6 | 11.3 | 0.00 | 2.26 | 0.00 | 37 | 1014.8 |
| 20260901212903 | 35 | 227 | 3.2 | 11.3 | 0.00 | 2.26 | 0.00 | 36 | 1014.9 |
| 20260901212403 | 35 | 248 | 4.8 | 11.3 | 0.00 | 2.26 | 0.00 | 37 | 1015.0 |
| 20260901211903 | 35 | 228 | 3.2 | 9.7 | 0.00 | 2.26 | 0.00 | 36 | 1015.0 |
| 20260901211403 | 35 | 226 | 4.8 | 11.3 | 0.00 | 2.26 | 0.00 | 36 | 1015.2 |
| 20260901210903 | 35 | 238 | 4.8 | 11.3 | 0.00 | 2.26 | 0.00 | 36 | 1015.2 |
| 20260901210403 | 35 | 327 | 1.6 | 4.8 | 0.00 | 2.26 | 0.00 | 37 | 1015.4 |
| 20260901205903 | 35 | 309 | 1.6 | 9.7 | 0.00 | 2.26 | 0.00 | 38 | 1015.3 |
| 20260901205403 | 35 | 197 | 1.6 | 11.3 | 0.00 | 2.26 | 0.00 | 37 | 1015.4 |
| 20260901204903 | 35 | 264 | 3.2 | 14.5 | 0.00 | 2.26 | 0.00 | 39 | 1015.5 |
| 20260901204403 | 35 | 201 | 6.4 | 14.5 | 0.00 | 2.26 | 0.00 | 38 | 1015.5 |
| 20260901203903 | 35 | 8 | 1.6 | 11.3 | 0.00 | 2.26 | 0.00 | 39 | 1015.5 |
| 20260901202903 | 34 | 229 | 4.8 | 12.9 | 0.00 | 2.26 | 0.00 | 39 | 1015.8 |
| 20260901201903 | 34 | 247 | 3.2 | 12.9 | 0.00 | 2.26 | 0.00 | 39 | 1016.0 |
| 20260901200403 | 35 | 335 | 3.2 | 8.0 | 0.00 | 2.26 | 0.00 | 37 | 1016.0 |
| 20260901195903 | 34 | 235 | 1.6 | 4.8 | 0.00 | 2.26 | 0.00 | 38 | 1016.1 |
| 20260901194404 | 34 | 134 | 1.6 | 4.8 | 0.00 | 2.26 | 0.00 | 38 | 1016.1 |
| 20260901193902 | 33 | 58 | 3.2 | 8.0 | 0.00 | 2.26 | 0.00 | 38 | 1016.2 |
| 20260901193403 | 33 | 81 | 3.2 | 11.3 | 0.00 | 2.26 | 0.00 | 38 | 1016.3 |
| 20260901192903 | 33 | 40 | 4.8 | 11.3 | 0.00 | 2.26 | 0.00 | 37 | 1016.3 |
| 20260901192402 | 33 | 74 | 3.2 | 9.7 | 0.00 | 2.26 | 0.00 | 38 | 1016.4 |
| 20260901191904 | 33 | 27 | 3.2 | 9.7 | 0.00 | 2.26 | 0.00 | 39 | 1016.6 |
| 20260901191403 | 33 | 90 | 3.2 | 9.7 | 0.00 | 2.26 | 0.00 | 40 | 1016.7 |
| 20260901190903 | 33 | 48 | 3.2 | 9.7 | 0.00 | 2.26 | 0.00 | 39 | 1016.6 |
| 20260901190403 | 32 | 52 | 1.6 | 4.8 | 0.00 | 2.26 | 0.00 | 42 | 1016.8 |
| 20260901185903 | 32 | 147 | 1.6 | 4.8 | 0.00 | 2.26 | 0.00 | 40 | 1016.7 |
| 20260901185403 | 32 | 134 | 0.0 | 4.8 | 0.00 | 2.26 | 0.00 | 40 | 1016.8 |